Location: Lansingburgh
(42.7845°N, 73.6696°W)
Time: 10:34:44
(UTC+00:00)

BlueWalker 3 - Pass Details

Date: 09 October 2024
Orbit: 470 x 481 km, 53.2° (Epoch: 11 November)

Event Time Altitude Azimuth Distance (km) Brightness Sun altitude
Exits shadow 09:29:23 29° 319° (NW) 892 2.9 -17.7°
Maximum altitude 09:29:53 30° 336° (NNW) 867 2.9 -17.6°
Drops below altitude 10° 09:33:11 10° 39° (NE) 1,634 5.2 -17.0°
Sets 09:35:31 0° 51° (NE) 2,514 6.5 -16.6°
